Location: Newark
(35.5000°N, 109.0000°E)
Time: 04:00:16
(UTC+00:00)

N. Korean satellite - Pass Details

Date: 04 October 2020
Orbit: 453 x 505 km, 97.2° (Epoch: 21 October)

Event Time Altitude Azimuth Distance (km) Brightness Sun altitude
Rises 21:49:58 0° 20° (NNE) 2,538 10.5 -11.4°
Reaches altitude 10° 21:52:09 10° 28° (NNE) 1,646 9.7 -11.0°
Maximum altitude 21:55:28 39° 98° (E) 717 8.1 -10.3°
Drops below altitude 10° 21:58:44 10° 169° (S) 1,607 9.3 -9.6°
Sets 22:00:49 0° 177° (S) 2,470 10.2 -9.2°
